Location: Watson Lake
(60.1170°N, 128.8000°W)
Time: 00:40:59
(UTC-08:00)

Daily predictions for brighter satellites

Satellite Brightness Start Highest point End
(mag) Time Altitude Azimuth Time Altitude Azimuth Time Altitude Azimuth
Cosmos 2082 Rocket 4.1 03:53:13 26° ENE 03:53:13 26° ENE 03:56:18 10° NE
SL-16 R/B 4.3 03:54:08 21° NNE 03:54:08 21° NNE 03:56:40 10° NE
Cosmos 2360 Rocket 3.7 04:15:36 32° E 04:15:36 32° E 04:18:47 10° ESE
Cosmos 2333 Rocket 3.8 04:15:09 31° NE 04:15:09 31° NE 04:19:14 10° E
COSMOS 2428 4.1 04:18:51 35° NE 04:18:51 35° NE 04:22:59 10° E
ADEOS II 4.2 04:15:09 10° NNE 04:16:46 20° NNE 04:16:46 20° NNE
Cosmos 2219 Rocket 3.7 04:21:48 32° NE 04:21:48 32° NE 04:25:58 10° E
Lacrosse 4 Rocket 4.2 04:40:01 14° NE 04:40:01 14° NE 04:40:47 10° NE
Cosmos 2237 Rocket 3.6 04:40:34 32° NNE 04:40:34 32° NNE 04:45:22 10° E
ATLAS 5 CENTAUR R/B 3.0 04:42:32 48° ENE 04:42:32 48° ENE 04:47:03 10° E
Cosmos 2056 Rocket 4.5 04:54:51 42° ENE 04:54:51 42° ENE 04:59:17 10° ESE
SL-16 R/B 3.9 05:02:18 22° SSE 05:02:18 22° SSE 05:04:13 10° SSE
Okean O Rocket 3.9 04:57:54 10° NNE 04:59:06 18° NNE 04:59:06 18° NNE
Cosmos 2322 Rocket 3.8 05:06:03 23° SSE 05:06:03 23° SSE 05:08:09 10° SSE
Cosmos 44 Rocket 4.3 05:06:55 43° E 05:06:55 43° E 05:10:27 10° ENE
USA 234 3.9 05:06:00 10° SE 05:11:04 40° S 05:11:04 40° S
Cosmos 2237 4.2 05:19:09 77° NE 05:19:09 77° NE 05:24:52 10° SE
Cosmos 44 4.0 05:23:33 46° ENE 05:23:33 46° ENE 05:26:53 10° ENE
IRS-1C Rocket 4.4 05:17:52 10° NNE 05:23:08 65° ESE 05:24:49 42° S
Cosmos 540 Rocket 4.2 05:26:25 44° NNE 05:26:25 44° NNE 05:30:02 10° NNE
Cosmos 2322 3.6 05:30:04 89° SW 05:30:04 89° SW 05:35:45 10° SE
Okean-O 4.1 05:26:43 10° NNE 05:30:52 37° E 05:35:00 10° SSE
Meteor 1-11 Rocket 3.7 05:29:35 46° S 05:31:26 84° ESE 05:37:14 10° NNE
Cosmos 967 Rocket 4.4 05:33:00 71° W 05:33:41 80° SW 05:40:11 10° SE
Cosmos 1833 Rocket 2.6 05:34:32 76° NNW 05:34:32 76° NNW 05:39:59 10° NE
Cosmos 783 Rocket 4.4 05:34:29 86° SE 05:34:30 86° ESE 05:39:53 10° NNE
Cosmos 2082 Rocket 2.1 05:35:05 79° NW 05:35:05 79° NW 05:40:45 10° NE
Okean 1 Rocket 4.0 05:31:10 10° SSE 05:35:23 47° E 05:39:41 10° NNE
Genesis I 4.3 05:37:17 45° ESE 05:37:17 45° ESE 05:40:12 10° ESE
Meteor 2-11 Rocket 4.3 05:32:54 30° NNW 05:36:09 88° E 05:42:15 10° SSE
Cosmos 1624 Rocket 4.1 05:36:13 64° N 05:36:56 74° NE 05:42:17 10° SE
Resurs 1-4 Rocket 4.3 05:33:29 10° N 05:34:16 13° N 05:34:16 13° N
SL-16 R/B 3.4 05:36:01 30° N 05:37:26 34° NNE 05:42:36 10° E
Cosmos 1092 Rocket 4.4 05:32:02 10° S 05:38:03 61° E 05:44:09 10° NNE
Cosmos 292 Rocket 4.5 05:41:29 43° NNE 05:41:29 43° NNE 05:44:50 10° NNE
Meteor 1-5 Rocket 4.2 05:35:30 10° S 05:40:49 71° ESE 05:46:07 10° NNE
Aureole 2 Rocket 4.4 05:42:56 27° ESE 05:42:56 27° ESE 05:44:37 10° SE
Cosmos 1340 Rocket 4.1 05:41:56 34° NE 05:42:39 37° ENE 05:46:22 10° SE
NOSS 2-1 (C) 4.1 05:43:16 60° N 05:43:16 60° N 05:49:06 10° E
NOSS 2-1 (D) 4.1 05:43:26 60° N 05:43:26 60° N 05:49:20 10° E
Cosmos 1892 Rocket 4.0 05:44:20 53° NNE 05:45:00 60° ENE 05:49:20 10° SSE
CZ-4B DEB 4.1 05:40:51 10° NNE 05:46:26 77° WNW 05:47:15 64° SW
COSMOS 2406 4.0 05:48:45 36° NNW 05:48:45 36° NNW 05:53:44 10° NE
ERBS 4.3 05:50:04 26° SE 05:50:04 26° SE 05:51:49 10° ESE
Cosmos 1553 Rocket 4.3 05:43:43 10° NNW 05:50:01 67° ENE 05:56:11 10° SSE
DMSP B5D1-3 4.4 05:46:13 10° SSE 05:51:23 80° WSW 05:52:04 67° NW
CZ-4B R/B 3.1 05:46:20 10° NNE 05:51:58 78° WNW 05:53:36 47° SW
Meteor 2-20 4.3 05:50:24 24° SSW 05:54:16 75° WNW 06:00:23 10° NNE
IDEFIX/ARIANE 42P 3.3 05:51:00 10° NNE 05:56:07 53° E 06:01:14 10° S
Cosmos 2360 Rocket 2.2 05:57:24 57° WSW 05:57:26 57° WSW 06:02:59 10° SSE
Cosmos 1900 4.4 05:57:22 62° NNW 05:58:07 75° NNE 06:03:10 10° ESE
NOSS 3-3 (A) 4.3 05:56:49 47° WNW 05:58:49 68° N 06:06:18 10° E
NOSS 3-3 (C) 4.3 05:56:55 47° WNW 05:58:55 68° N 06:06:24 10° E
Cosmos 2333 Rocket 2.5 05:57:10 39° NNW 05:59:16 67° NE 06:05:01 10° SE
Cosmos 1371 Rocket 3.8 05:59:01 67° WNW 05:59:37 76° WSW 06:04:49 10° SSE
ADEOS II 3.5 05:55:13 10° N 05:57:42 24° NNW 05:57:42 24° NNW
COSMOS 2428 2.6 06:00:53 50° NW 06:02:30 87° SW 06:08:15 10° SE
Cosmos 1066 Rocket 3.9 06:01:12 44° NNW 06:02:56 77° WSW 06:08:20 10° S
Cosmos 1461 3.6 06:03:22 46° N 06:03:36 46° N 06:08:08 10° E
Cosmos 2219 Rocket 2.3 06:03:31 41° NNW 06:05:35 76° NE 06:11:17 10° SE
CZ-2D R/B 4.2 06:05:13 10° N 06:06:29 13° NNW 06:06:29 13° NNW
NOSS 0 Rocket 4.0 06:06:55 35° NW 06:09:37 73° NE 06:15:47 10° SE
CZ-4C R/B 3.0 06:05:41 16° SSW 06:09:58 53° SE 06:16:15 10° ENE
Cosmos 2333 4.1 06:08:56 45° NW 06:10:49 81° SW 06:16:37 10° SSE
NOSS 2-1 (E) 4.1 06:10:08 51° NW 06:11:08 62° N 06:17:21 10° E
CZ-4 R/B 4.3 06:08:56 10° NE 06:12:00 19° E 06:15:05 10° SE
Cosmos 1538 Rocket 4.0 06:10:44 19° SSW 06:14:35 86° ESE 06:19:59 10° NNE
USA 267 4.0 06:08:40 10° ENE 06:14:58 47° SSE 06:20:33 13° SW
Lacrosse 4 Rocket 2.5 06:16:21 31° N 06:16:52 32° NNE 06:20:34 10° E
Cosmos 1943 4.5 06:18:30 24° NNW 06:20:20 29° N 06:25:12 10° ENE
Cosmos 1867 3.9 06:19:54 40° NW 06:21:33 54° N 06:26:56 10° E
Thor Agena Rocket 3.4 06:17:49 10° SSE 06:22:54 77° WSW 06:25:49 27° NNW
SeaSat 1 2.6 06:20:14 10° NE 06:25:14 74° SE 06:30:10 10° SSW
Cosmos 2237 Rocket 2.5 06:22:24 29° NNW 06:25:19 66° NE 06:30:58 10° SE
ATLAS 5 CENTAUR R/B 2.2 06:24:05 43° WNW 06:25:57 70° SW 06:32:10 10° SE
CZ-2C R/B 2.7 06:21:14 10° NNE 06:26:10 66° ESE 06:30:53 10° S
Celestis-02/Orion 38 4.4 06:21:54 10° SSE 06:26:58 72° SW 06:28:53 39° NW
SAR-Lupe-3 4.4 06:24:21 10° SSE 06:27:57 81° WSW 06:28:09 76° NW
Meteor 1-4 Rocket 2.5 06:28:02 46° SSW 06:29:04 77° WNW 06:32:51 10° NNE
Cosmos 1455 Rocket 4.3 06:25:28 10° SSE 06:29:40 43° E 06:33:55 10° NNE
PAYLOAD A 4.1 06:25:31 10° NNE 06:31:01 88° ESE 06:36:25 10° SSW
Cosmos 1300 Rocket 3.9 06:33:53 42° NW 06:33:53 42° NW 06:37:24 10° N
Cosmos 1420 Rocket 4.2 06:30:27 26° NNW 06:33:26 70° NE 06:38:37 10° SE
Okean 1-7 Rocket 4.5 06:36:34 32° SW 06:36:34 32° SW 06:39:39 10° SSW
Cosmos 1975 2.9 06:32:19 10° S 06:36:19 75° ESE 06:40:20 10° NNE
Cosmos 2056 Rocket 3.5 06:35:13 40° WNW 06:36:42 54° WSW 06:41:41 10° S
Okean O Rocket 3.2 06:34:38 10° N 06:36:33 21° NNW 06:36:33 21° NNW
SJ-12 4.3 06:35:35 10° NNE 06:39:39 63° ESE 06:43:42 10° S
Nadezhda 4 Rocket 4.0 06:34:12 10° SW 06:40:09 51° WNW 06:46:09 10° N
SL-16 R/B 4.0 06:44:13 14° SW 06:44:13 14° SW 06:45:25 10° SW
Cosmos 2322 Rocket 4.0 06:47:56 14° SW 06:47:56 14° SW 06:49:11 10° SW
Cosmos 921 Rocket 3.3 06:44:10 24° NNW 06:46:32 62° ENE 06:50:43 10° SE
Cosmos 44 Rocket 3.3 06:45:39 37° W 06:47:20 61° NNW 06:52:09 10° ENE
SMAP 4.3 06:42:53 10° NNE 06:47:22 44° E 06:51:50 10° S
Cosmos 1356 4.4 06:46:05 18° N 06:48:25 45° ENE 06:51:47 10° SE
Cosmos 1452 Rocket 3.4 06:45:53 25° NW 06:49:05 84° WSW 06:54:24 10° SSE
Cosmos 1356 Rocket 3.8 06:46:23 16° N 06:49:33 60° ENE 06:53:38 10° SSE
Cosmos 192 4.2 06:46:19 10° SW 06:51:14 74° NW 06:56:12 10° NNE
Cosmos 1842 3.1 06:49:23 24° NNW 06:51:43 81° WSW 06:55:41 10° S
deb Kosmos-1763 4.0 06:50:21 24° SW 06:52:29 70° NW 06:56:15 10° NNE
Cosmos 1743 2.9 06:48:50 10° S 06:52:39 74° E 06:56:31 10° NNE
Cosmos 1484 Rocket 3.6 06:49:12 10° NNE 06:53:05 54° E 06:56:52 10° S
Ariane Rocket 4.1 06:50:38 10° NNE 06:55:33 48° E 07:00:27 10° S
COSMOS 2441 4.3 06:51:42 10° NNE 06:56:36 87° ESE 07:01:27 10° SSW
Cosmos 2285 Rocket 4.1 06:50:22 10° SSW 06:56:40 78° ESE 07:03:00 10° NE
NOAA 6 4.1 06:55:19 10° NNE 07:00:20 54° WNW 07:05:20 10° SW
S3M 4.0 06:56:29 10° NNW 07:02:29 56° W 07:08:34 10° S
Cosmos 44 3.3 07:01:59 31° WNW 07:03:47 52° NNW 07:08:19 10° ENE
Cosmos 1500 3.6 07:01:57 10° SW 07:05:36 40° WNW 07:09:15 10° N
Cosmos 1980 3.7 07:02:27 22° NW 07:06:15 80° SW 07:11:56 10° SSE
Okean-O 2.9 07:03:13 10° N 07:07:29 45° WNW 07:11:43 10° SW
Cosmos 1238 Rocket 4.0 07:00:48 10° NNW 07:07:32 77° W 07:13:40 10° S
Cosmos 389 Rocket 2.4 07:06:16 10° SSW 07:09:54 86° WNW 07:13:29 10° NNE
ATLAS CENTAUR R/B 3.7 07:08:02 10° S 07:10:59 23° SE 07:13:58 10° ENE
Feng Yun 1-1 Rocket 4.5 07:07:16 10° NNE 07:12:58 52° WNW 07:18:30 10° SW
Okean 1 Rocket 3.7 07:09:25 10° SW 07:13:29 34° WNW 07:17:35 10° N
Genesis I 4.1 07:12:15 27° W 07:13:37 34° SW 07:17:17 10° SSE
MSX 3.7 07:08:20 10° NNE 07:14:07 77° WNW 07:19:51 10° SSW
Cosmos 773 Rocket 4.1 07:10:57 10° SW 07:16:00 51° NW 07:21:07 10° NNE
Aureole 2 Rocket 3.6 07:16:17 23° WSW 07:16:17 23° WSW 07:18:45 10° SSW
Cosmos 1833 Rocket 3.4 07:16:15 22° WNW 07:19:02 35° NNW 07:24:11 10° NE
Cosmos 1340 Rocket 3.4 07:17:35 25° NW 07:19:08 36° W 07:22:46 10° SSW
Cosmos 2082 Rocket 2.9 07:16:57 22° WNW 07:19:53 35° NNW 07:25:07 10° NE
Cosmos 1626 Rocket 3.6 07:17:05 14° NNW 07:20:37 54° W 07:24:52 10° S
Meteor 1-12 Rocket 4.1 07:15:31 10° SSW 07:21:12 75° WNW 07:26:53 10° NNE
SL-16 R/B 2.4 07:17:53 17° NW 07:22:26 73° NE 07:28:08 10° SE
YAOGAN 1 3.6 07:18:35 10° NNE 07:22:50 49° E 07:27:03 10° S
Cosmos 1092 Rocket 4.3 07:18:03 10° SW 07:23:48 40° WNW 07:29:36 10° N
Timation 2 Rocket 4.2 07:17:34 10° WSW 07:24:24 61° NW 07:31:07 10° NE
Cosmos 1271 Rocket 2.5 07:20:53 10° SSW 07:24:39 79° WNW 07:28:25 10° NNE
ERBS 4.0 07:23:18 17° WSW 07:24:40 22° SSW 07:27:21 10° SSE
Cosmos 1833 4.3 07:23:59 10° SSW 07:29:34 81° SE 07:35:15 10° NE
Cosmos 1603 4.4 07:26:23 15° NW 07:31:03 48° NE 07:36:37 10° ESE
Meteor 1-24 Rocket 4.5 07:26:12 10° NNW 07:31:42 53° ENE 07:37:23 10° SE
CZ-4B R/B 4.2 07:27:22 10° N 07:31:52 25° NW 07:35:29 14° W
Cosmos 1331 Rocket 4.3 07:27:53 13° NNW 07:32:31 64° NE 07:37:39 10° SE
Cosmos 1680 Rocket 3.4 07:27:35 10° SW 07:32:48 70° NW 07:38:05 10° NNE
COSMOS 2406 4.4 07:30:49 16° NW 07:34:16 28° N 07:39:11 10° ENE
NOSS 2-1 (C) 4.2 07:30:37 19° WNW 07:34:18 85° NNE 07:41:04 10° ESE
NOSS 2-1 (D) 4.2 07:30:47 19° WNW 07:34:28 85° NNE 07:41:18 10° ESE
Cosmos 2026 Rocket 4.2 07:28:55 10° SW 07:35:01 48° WNW 07:41:14 10° N
Cosmos 1758 Rocket 3.8 07:30:51 10° NNW 07:35:15 73° ENE 07:39:39 10° SSE
IDEFIX/ARIANE 42P 2.9 07:30:50 10° N 07:35:41 41° WNW 07:40:33 10° SW
Cosmos 1110 Rocket 4.2 07:31:18 13° NNW 07:36:01 72° NE 07:41:12 10° SE
Cosmos 1666 2.8 07:33:49 10° SSW 07:37:33 50° WNW 07:41:16 10° N
Cosmos 2266 Rocket 3.9 07:31:48 10° S 07:37:53 90° WNW 07:43:59 10° NNE
ADEOS II 3.8 07:36:01 10° N 07:38:20 13° NNW 07:38:39 13° NW
Cosmos 2360 Rocket 3.7 07:39:12 15° W 07:40:20 16° W 07:43:32 10° SW
Cosmos 1707 2.7 07:37:28 10° NNW 07:41:25 90° SSW 07:45:19 10° SSE
Cosmos 1461 3.2 07:39:48 18° NW 07:43:15 75° NNE 07:48:00 10° ESE
Cosmos 2333 Rocket 2.8 07:39:11 16° NW 07:43:22 40° WSW 07:48:42 10° S
AQUARIUS 4.1 07:40:04 10° NNE 07:44:37 75° WNW 07:49:06 10° SSW
ERS-2 3.7 07:41:16 10° NNE 07:44:46 39° E 07:48:16 10° S
COSMOS 2428 3.8 07:42:54 16° WNW 07:46:09 26° WSW 07:50:47 10° SSW
Cosmos 1655 Rocket 4.2 07:40:32 10° SW 07:46:39 52° WNW 07:52:52 10° N
CZ-4 R/B 1.4 07:43:23 10° NNE 07:47:34 82° WNW 07:51:48 10° SSW
Cosmos 2219 Rocket 3.0 07:45:14 15° NW 07:49:12 33° WSW 07:54:14 10° S
Cosmos 1602 Rocket 4.2 07:46:12 11° NNW 07:49:58 35° W 07:53:54 10° SSW
NOSS 3-3 (A) 4.4 07:44:15 15° WNW 07:50:19 87° NNE 07:58:06 10° ESE
NOSS 3-3 (C) 4.4 07:44:21 15° WNW 07:50:25 87° NNE 07:58:12 10° ESE
Lacrosse 4 Rocket 1.4 07:52:41 15° NW 07:56:05 79° NE 08:00:09 10° SE
Cosmos 1825 Rocket 3.5 07:52:42 10° NNW 07:57:01 66° W 08:01:19 10° S
CZ-4C R/B 2.5 07:52:33 10° WSW 07:58:23 77° NNW 08:05:17 10° ENE
USA 267 3.6 07:52:05 10° E 07:58:39 68° S 08:05:10 10° WSW
Cosmos 2315 Rocket 4.2 07:55:03 10° NNW 08:01:02 51° W 08:07:01 10° SSW
NOSS 2-1 (E) 4.4 07:57:30 13° WNW 08:02:08 84° SSW 08:09:15 10° ESE
Cosmos 1378 3.3 07:58:35 10° NNW 08:02:17 55° W 08:05:58 10° S
SeaSat 1 2.9 07:57:57 10° NE 08:02:34 40° NNW 08:07:10 10° W
CZ-2C R/B 3.1 07:59:50 10° N 08:04:09 31° NW 08:08:20 10° WSW
Meteor 1-4 Rocket 4.3 08:02:30 10° W 08:04:51 16° NW 08:07:13 10° NNW
Cosmos 1867 3.6 08:00:34 13° WNW 08:05:34 87° SW 08:11:04 10° SE
Cosmos 1943 3.8 08:00:19 11° NW 08:05:39 48° NE 08:11:06 10° ESE
Cosmos 923 Rocket 4.4 08:00:46 10° WSW 08:05:44 42° NW 08:10:43 10° NNE
Helios 1B rocket 2.5 08:01:45 10° SSE 08:05:51 80° ENE 08:09:58 10° NNW
APEX 3.8 08:02:09 10° WSW 08:06:19 59° NW 08:11:45 10° NE
Cosmos 1455 Rocket 3.6 08:03:26 10° SW 08:07:37 38° WNW 08:11:48 10° N
Cosmos 2237 Rocket 2.8 08:04:14 11° NW 08:09:13 40° WSW 08:14:27 10° S
ATLAS 5 CENTAUR R/B 3.6 08:05:38 11° WNW 08:10:07 27° WSW 08:15:15 10° S
CSL-04 Debris 4.2 08:06:43 10° NNE 08:12:05 61° WNW 08:17:28 10° SW
Cosmos 1544 Rocket 4.2 08:08:13 10° SW 08:12:15 33° WNW 08:16:18 10° N
Meteor 1-15 Rocket 4.4 08:06:27 10° SSW 08:12:17 87° ESE 08:18:15 10° NNE
Cosmos 1975 4.0 08:10:14 10° WSW 08:13:19 21° WNW 08:16:25 10° N
Cosmos 1726 Rocket 4.5 08:09:12 10° S 08:13:32 54° E 08:17:52 10° NNE
Lacrosse 5 4.3 08:11:55 10° SSW 08:16:04 26° SE 08:20:15 10° E
Nadezhda 1 Rocket 4.1 08:10:29 10° NNW 08:16:43 89° W 08:23:02 10° S
METEOR-M 4.1 08:11:55 10° NNE 08:17:19 81° WNW 08:22:41 10° SSW
Cosmos 2228 4.3 08:13:15 10° SSE 08:17:27 44° E 08:21:40 10° NNE
FENGYUN 3A 3.9 08:14:39 10° NNE 08:20:03 77° ESE 08:25:26 10° SSW
IRS-1A Rocket 4.2 08:15:21 10° NNE 08:20:54 80° WNW 08:26:29 10° SSW
Cosmos 2112 Rocket 4.3 08:16:54 10° WSW 08:21:53 44° NW 08:26:56 10° NNE
ARGOS Delta rocket 3.7 08:17:38 10° S 08:21:59 60° W 08:26:24 10° NNW
Cosmos 2227 Rocket 3.8 08:16:57 10° S 08:22:13 41° ESE 08:27:31 10° NE
USA 186 4.3 08:21:46 10° ENE 08:22:37 11° E 08:23:28 10° ESE
Cosmos 921 Rocket 4.1 08:21:04 10° NW 08:24:33 26° WSW 08:28:02 10° SSW
SMAP 3.4 08:20:21 10° N 08:24:45 42° WNW 08:29:08 10° SW
CSL-04 Rocket 4.0 08:21:05 10° NNE 08:26:26 49° WNW 08:31:45 10° SW
Cosmos 1484 Rocket 3.7 08:23:59 10° N 08:27:21 27° WNW 08:30:38 10° WSW
Cosmos 1743 4.0 08:26:03 10° WSW 08:28:57 20° WNW 08:31:52 10° N
Cosmos 44 Rocket 3.7 08:24:51 10° WNW 08:29:29 47° N 08:34:14 10° ENE
Cosmos 2219 3.4 08:25:44 10° SSW 08:31:23 83° SE 08:37:04 10° NE
Ariane Rocket 3.3 08:29:45 10° NNE 08:34:33 43° WNW 08:39:20 10° SW
In-Cosmos 22 4.1 08:29:45 10° NNW 08:35:02 73° WSW 08:40:20 10° S
Meteor 2-9 Rocket 4.5 08:30:30 10° SW 08:36:07 49° WNW 08:41:40 10° NNE
Cosmos 1953 Rocket 4.1 08:32:16 10° NNW 08:36:29 42° W 08:40:40 10° SSW
SPOT 3 Rocket 3.6 08:31:37 10° NNE 08:36:49 90° ESE 08:41:59 10° SSW
IRAS Rocket 4.4 08:33:00 10° NNE 08:38:20 50° WNW 08:43:40 10° SW
Cosmos 1263 4.2 08:36:19 10° SSW 08:39:19 81° WNW 08:42:47 10° NNE
ALOS 2.3 08:35:53 10° NNE 08:40:34 70° WNW 08:45:14 10° SSW
Cosmos 158 Rocket 4.4 08:35:55 10° SSW 08:41:16 75° ESE 08:46:33 10° NE
